Weather History for Grand Forks AFB, ND

Change the Weather History Date:

Tuesday, November 5, 2013

  Actual Average Record
Temperature  
Mean Temperature 26 °F -  
Max Temperature 37 °F 38 °F 66 °F (2001)
Min Temperature 14 °F 22 °F 5 °F (2003)
Degree Days  
Heating Degree Days 40    
Moisture  
Dew Point 17 °F    
Average Humidity 69    
Maximum Humidity 88    
Minimum Humidity 43    
Precipitation  
Precipitation 0.00 in - - ()
Sea Level Pressure  
Sea Level Pressure 30.18 in    
Wind  
Wind Speed 8 mph (WSW)    
Max Wind Speed 12 mph    
Max Gust Speed -    
Visibility 10 miles    
Events      
Averages and records for this station are not official NWS values.
T = Trace of Precipitation, MM = Missing Value Source: NWS Daily Summary

Daily Weather History Graph

Daily Weather History Graph

Search for Another Location

Airport:

Trip Planner

Search our weather history database for the weather conditions in past years. The results will help you decide how hot, cold, wet, or windy it might be!

Date:

Astronomy

Nov. 05, 2013 Rise Set
Actual Time 7:21 AM CST 5:04 PM CST
Civil Twilight 6:48 AM CST 5:37 PM CST
Nautical Twilight 6:11 AM CST 6:14 PM CST
Astronomical Twilight 5:35 AM CST 6:50 PM CST
Moon 9:44 AM CST (11/5) 7:00 PM CST (11/5)
Length of Visible Light 10h 49m
Length of Day
9h 43m
Waxing Crescent, 7% of the Moon is Illuminated
Nov 5
Waxing Crescent
Nov 9
First Quarter
Nov 17
Full
Nov 25
Last Quarter
Dec 2
New

Hourly Weather History & Observations

Time (CST) Temp. Windchill Dew Point Humidity Pressure Visibility Wind Dir Wind Speed Gust Speed Precip Events Conditions
12:58 AM 24.6 °F 15.8 °F 18.7 °F 78% 30.09 in 10.0 mi WSW 8.1 mph - N/A   Clear
1:58 AM 25.0 °F 16.3 °F 18.3 °F 76% 30.10 in 10.0 mi WSW 8.1 mph - N/A   Clear
2:58 AM 25.0 °F 16.3 °F 17.8 °F 74% 30.12 in 10.0 mi WSW 8.1 mph - N/A   Clear
3:58 AM 25.0 °F 14.8 °F 17.6 °F 74% 30.13 in 10.0 mi West 10.4 mph - N/A   Clear
4:58 AM 25.2 °F 15.1 °F 17.8 °F 74% 30.14 in 10.0 mi WSW 10.4 mph - N/A   Partly Cloudy
5:58 AM 22.5 °F 14.1 °F 17.4 °F 81% 30.17 in 10.0 mi West 6.9 mph - N/A   Clear
6:58 AM 19.0 °F 12.3 °F 15.6 °F 87% 30.17 in 10.0 mi West 4.6 mph - N/A   Clear
7:58 AM 21.6 °F 13.0 °F 17.2 °F 83% 30.20 in 10.0 mi SSW 6.9 mph - N/A   Clear
8:58 AM 27.0 °F 18.7 °F 18.7 °F 71% 30.20 in 10.0 mi WSW 8.1 mph - N/A   Clear
9:58 AM 26.8 °F 17.7 °F 18.7 °F 72% 30.23 in 10.0 mi WSW 9.2 mph - N/A   Clear
10:58 AM 28.9 °F 19.8 °F 19.0 °F 67% 30.23 in 10.0 mi WSW 10.4 mph - N/A   Clear
11:58 AM 33.1 °F 24.4 °F 19.9 °F 59% 30.22 in 10.0 mi WSW 11.5 mph - N/A   Clear
12:58 PM 33.4 °F 25.4 °F 19.8 °F 57% 30.21 in 10.0 mi West 10.4 mph - N/A   Clear
1:58 PM 34.9 °F 29.0 °F 19.6 °F 54% 30.19 in 10.0 mi West 6.9 mph - N/A   Clear
2:58 PM 37.4 °F 30.8 °F 17.4 °F 44% 30.19 in 10.0 mi WSW 9.2 mph - N/A   Clear
3:58 PM 35.8 °F 31.9 °F 15.3 °F 43% 30.19 in 10.0 mi West 4.6 mph - N/A   Clear
4:58 PM 32.5 °F 27.1 °F 16.3 °F 51% 30.18 in 10.0 mi WNW 5.8 mph - N/A   Clear
5:58 PM 31.1 °F 25.4 °F 16.0 °F 54% 30.18 in 10.0 mi NW 5.8 mph - N/A   Clear
6:58 PM 28.4 °F 22.2 °F 15.1 °F 57% 30.18 in 10.0 mi WNW 5.8 mph - N/A   Clear
7:58 PM 23.4 °F - 14.5 °F 69% 30.18 in 10.0 mi WNW 2.3 mph - N/A   Clear
8:58 PM 20.7 °F 15.8 °F 13.5 °F 74% 30.18 in 10.0 mi South 3.5 mph - N/A   Clear
9:58 PM 16.3 °F 9.2 °F 12.4 °F 84% 30.20 in 10.0 mi SSW 4.6 mph - N/A   Clear
10:58 PM 14.9 °F 6.1 °F 12.0 °F 88% 30.20 in 10.0 mi WSW 5.8 mph - N/A   Clear
11:58 PM 14.9 °F 7.5 °F 11.1 °F 85% 30.19 in 10.0 mi WNW 4.6 mph - N/A   Clear